Weather observations for the past three days for
Laughlin Air Force Base Auxiliary Airfield
Imperial (Metric)
Date Time (cdt) Wind (mph) Vis. (mi.) Weather Sky Cond. Temperature (ºF) Relative Humidity Wind Chill (°F) Heat Index (°F) Pressure Precipitation (in)
Air Dwpt 6 hour altimeter (in) sea level (mb) 1 hr 3 hr 6 hr
Max. Min.
01 15:55 E 12 G 16 10.00 Fair CLR 100 64.8 32% 103 29.86 1009.5
01 14:55 E 9 10.00 Fair CLR 99 66.4 35% 103 29.89 1010.6
01 13:55 E 9 10.00 Fair CLR 95.5 69.4 43% 102 29.92 1011.6
01 12:55 E 9 10.00 Fair CLR 93.2 70.5 93.2 77.5 48% 100 29.95 1012.6
01 11:55 S 10 10.00 Fair CLR 89.1 71.8 57% 96 29.97 1013.3
01 10:55 SE 8 10.00 Fair CLR 86.2 71.6 62% 92 29.97 1013.4
01 09:55 SE 9 10.00 Fair CLR 83.5 70.9 66% 88 29.97 1013.4
01 08:55 E 12 10.00 Fair CLR 80.6 71.1 73% 84 29.98 1013.8
01 07:55 E 9 10.00 Fair CLR 77.9 70 77% 80 29.96 1013.0
01 06:55 E 9 10.00 Fair CLR 77.7 68.4 88 77.7 73% 80 29.95 1012.7
01 05:55 E 8 10.00 Fair CLR 78.6 66.7 67% 81 29.94 1012.3
01 04:55 E 8 10.00 Fair CLR 80.8 66.9 63% 83 29.93 1012.0
01 03:55 SE 12 10.00 Fair CLR 82.4 65.7 57% 84 29.93 1011.9
01 02:55 E 10 10.00 Fair CLR 84.4 65.3 53% 86 29.93 1012.0
01 01:55 SE 13 10.00 Fair CLR 86.4 64.9 49% 88 29.92 1011.6
01 00:55 SE 15 10.00 Fair CLR 88.2 64.8 99 88.2 46% 90 29.91 1011.3
31 23:55 SE 15 10.00 Fair CLR 89.2 63.1 42% 90 29.89 1010.6
31 22:55 E 14 10.00 Fair CLR 90.3 62.6 40% 91 29.87 1010.0
31 21:55 E 13 10.00 Fair CLR 91.2 62.8 39% 92 29.85 1009.3
31 20:55 E 10 10.00 Fair CLR 92.8 63.5 38% 94 29.83 1008.6
31 19:55 E 13 10.00 Fair CLR 95.7 63.7 35% 98 29.82 1008.3
31 17:55 SE 13 10.00 Fair CLR 100.4 63.3 30% 103 29.82 1008.2
31 16:55 E 15 G 21 10.00 Fair CLR 99.5 66 34% 104 29.83 1008.5
31 15:55 SE 14 G 21 10.00 Fair CLR 98.8 67.8 37% 104 29.86 1009.5
31 13:55 E 15 10.00 Fair CLR 94.1 70.7 47% 101 29.92 1011.6
31 11:55 SE 12 10.00 A Few Clouds FEW025 88.5 71.8 58% 95 29.97 1013.4
31 10:55 SE 9 10.00 Overcast OVC022 86 72.3 64% 93 29.96 1013.0
31 09:55 SE 14 10.00 Partly Cloudy SCT019 83.8 72.1 68% 90 29.96 1013.0
31 08:55 E 13 10.00 Fair CLR 80.6 72.7 77% 85 29.96 1013.1
31 07:55 E 10 10.00 Fair CLR 78.3 71.2 79% 81 29.95 1012.7
31 06:55 E 7 10.00 Fair CLR 78.4 69.8 87.6 78.4 75% 81 29.93 1012.0
31 05:55 E 8 10.00 Fair CLR 79.7 68.9 70% 82 29.92 1011.6
31 04:55 E 12 10.00 Fair CLR 81.5 69.4 67% 85 29.91 1011.2
31 03:55 E 14 10.00 Fair CLR 82.9 70.3 66% 87 29.9 1010.9
31 02:55 SE 16 10.00 Fair CLR 84.6 70.5 63% 89 29.91 1011.2
31 01:55 SE 15 G 23 10.00 Fair CLR 86 69.4 58% 90 29.91 1011.2
31 00:55 SE 16 10.00 Fair CLR 87.6 67.1 98.8 87.6 51% 91 29.9 1010.9
30 23:55 E 16 10.00 Fair CLR 88.7 64.6 45% 90 29.88 1010.3
30 22:55 E 12 10.00 Fair CLR 89.2 62.4 41% 90 29.87 1010.0
30 21:55 E 10 10.00 Fair CLR 90.1 62.4 40% 91 29.86 1009.7
30 20:55 E 9 10.00 Fair CLR 91.9 61.2 36% 92 29.84 1009.0
30 19:55 E 12 10.00 Fair CLR 96.1 60.4 31% 96 29.82 1008.3
30 18:55 E 16 10.00 Fair CLR 99 59 101.1 93.2 27% 99 29.82 1008.3
30 17:55 SE 13 10.00 Fair CLR 100.6 60.4 27% 101 29.82 1008.2
30 16:55 SE 10 10.00 Fair CLR 100.8 61.5 28% 102 29.82 1008.2
30 15:55 E 13 G 20 10.00 Fair CLR 99.7 64.4 32% 103 29.85 1009.2
30 14:55 S 10 10.00 Fair CLR 98.2 66.6 36% 102 29.89 1010.6
30 13:55 E 12 G 17 10.00 A Few Clouds FEW046 95.7 68.2 41% 101 29.92 1011.6
30 12:55 E 13 G 17 10.00 Fair CLR 93.6 71.4 93.6 76.8 49% 101 29.95 1012.7
30 11:55 SE 9 10.00 Fair CLR 90 72.1 56% 97 29.98 1013.7
30 10:55 SE 8 10.00 Fair CLR 86.5 72 62% 93 29.98 1013.8
30 09:55 E 10 10.00 Fair CLR 82.9 71.6 69% 88 29.98 1013.8
30 08:55 E 10 10.00 Fair CLR 80.2 70.3 72% 84 29.98 1013.8
30 07:55 E 7 10.00 Fair CLR 77.5 69.3 76% 79 29.97 1013.4
30 06:55 E 7 10.00 Fair CLR 78.1 69.1 84.9 77.9 74% 80 29.95 1012.7
30 05:55 E 8 10.00 Fair CLR 79.3 69.4 72% 82 29.94 1012.3
30 04:55 E 8 10.00 Fair CLR 80.4 69.3 69% 83 29.94 1012.3
30 03:55 E 10 10.00 Fair CLR 81.5 68.9 66% 85 29.93 1011.9
30 02:55 E 12 10.00 Fair CLR 82.8 68.9 63% 86 29.93 1012.0
30 01:55 SE 8 10.00 Fair CLR 83.7 68.2 60% 87 29.94 1012.3
30 00:55 SE 8 10.00 Fair CLR 85.1 66.6 98.6 85.1 54% 88 29.94 1012.3
29 23:55 SE 10 10.00 Fair CLR 87.1 64.4 47% 89 29.94 1012.3
29 22:55 E 8 10.00 Fair CLR 86.4 62.4 45% 87 29.92 1011.7
29 21:55 E 8 10.00 Fair CLR 89.1 63 42% 90 29.91 1011.3
29 20:55 E 8 10.00 Fair CLR 91.8 62.4 38% 92 29.89 1010.7
29 19:55 E 12 10.00 Fair CLR 95.7 61.9 33% 97 29.87 1010.0
29 18:55 E 13 10.00 Fair CLR 98.8 61 101.3 94.1 29% 100 29.87 1010.0
29 17:55 E 15 10.00 Fair CLR 100.2 61.2 28% 101 29.87 1009.9
29 16:55 E 15 G 20 10.00 Fair CLR 100.4 62.2 29% 102 29.89 1010.6
Date Time (cdt) Wind (mph) Vis. (mi.) Weather Sky Cond. Air Dwpt Max. Min. Relative Humidity Wind Chill (°F) Heat Index (°F) altimeter (in) sea level (mb) 1 hr 3 hr 6 hr
6 hour
Temperature (ºF) Pressure Precipitation (in)